ラッセル第3彗星

91P/Russell 3 (2013)

English version
Home page
Updated on September 14, 2013

---------------------------------------------------------------------

・ プロフィール

・ 軌道要素

Epoch 2013 Mar. 9.0 TT = JDT 2456360.5
T 2013 Mar. 1.17540 TT                                  MPC
q   2.6168154            (2000.0)            P               Q
n   0.12796346     Peri.  354.64876     -0.45884653     +0.85947952
a   3.9001269      Node   247.87114     -0.80590930     -0.50935072
e   0.3290435      Incl.   14.07565     -0.37412573     +0.04309057
P   7.70
From 253 observations 1996 Nov. 18-2013 July 13, mean residual 0".7.
     Nongravitational parameters A1 = -2.03, A2 = +0.1411.

・ 星図

・ 光度変化

        m1 = 13.0 + 5 logΔ + 10.0 log r

---------------------------------------------------------------------

軌道要素はM.P.E.C. 2013-O31に掲載されたものです。
星図はステラナビゲータ Ver.8 (アストロアーツ) で作成したものです。
光度グラフはComet for Windowsで作成したものです。

---------------------------------------------------------------------

Copyright(C) Seiichi Yoshida (comet@aerith.net). All rights reserved.